User: anonymous   Login
Location: Newark
(33.9035°S, 18.4112°E)
Time: 18:54:35
(UTC+00:00)
Language:

STARLINK-1111 - Orbit

View from above orbital plane
View from above orbital plane
View from above satellite
View from above satellite

Ground track
Ground track

The orbit data is extracted from the following two-line orbital elements,

1 44924C 20001L   20091.53555264  .00002748  00000-0  18819-3 0   917
2 44924  53.0009   4.3275 0002295  69.3980  95.3237 15.05577810    15
Epoch (UTC): 31 March 2020 12:51:11
Eccentricity: 0.0002295
inclination: 53.0009°
perigee height: 548 km
apogee height: 551 km
right ascension of ascending node: 4.3275°
argument of perigee: 69.3980°
revolutions per day: 15.05577810
mean anomaly at epoch: 95.3237°
orbit number at epoch: 1

The dashed part of the orbit path shows where the satellite is in the earth's shadow,  

DLR